Wetterdaten Winter 2017/2018

Datum T max T min Regen
01.12.2017 0.9 °C -1.6 °C 0.8 mm
02.12.2017 0.4 °C -3.9 °C 0 mm
03.12.2017 -0.3 °C -1.8 °C 1.8 mm
04.12.2017 2.8 °C -0.7 °C 0.6 mm
05.12.2017 4.6 °C 0.6 °C 0 mm
06.12.2017 5.2 °C 2.7 °C 0 mm
07.12.2017 7.9 °C -2.9 °C 0 mm
08.12.2017 7.1 °C -0.1 °C 2.2 mm
09.12.2017 1 °C -1.6 °C 0 mm
10.12.2017 5.8 °C -2.2 °C 3 mm
11.12.2017 6.3 °C 4.7 °C 9.6 mm
12.12.2017 6.6 °C 0 °C 0.2 mm
13.12.2017 5.1 °C -1.1 °C 0.2 mm
14.12.2017 6.8 °C 3.4 °C 2 mm
15.12.2017 6 °C 0.8 °C 3 mm
16.12.2017 3.3 °C 0.6 °C 1.4 mm
17.12.2017 1.9 °C 0.7 °C 0 mm
18.12.2017 2.1 °C -0.3 °C 1.4 mm
19.12.2017 2 °C 0.6 °C 0 mm
20.12.2017 3.6 °C 1.4 °C 0.2 mm
21.12.2017 6.3 °C 3.3 °C 1.6 mm
22.12.2017 7.7 °C 5.8 °C 3.8 mm
23.12.2017 8 °C 6.8 °C 0.2 mm
24.12.2017 7.5 °C 4.6 °C 0 mm
25.12.2017 4.6 °C -1.9 °C 0 mm
26.12.2017 11.2 °C -1.8 °C 0 mm
27.12.2017 5.8 °C 0.9 °C 0.8 mm
28.12.2017 3.1 °C -1.7 °C 2.4 mm
29.12.2017 3.7 °C -2.7 °C 2 mm
30.12.2017 13.1 °C 2.6 °C 2.6 mm
31.12.2017 13.3 °C 9.3 °C 0 mm
01.01.2018 9.5 °C 5.8 °C 0.6 mm
02.01.2018 6.7 °C 3.9 °C 1.6 mm
03.01.2018 12.2 °C 5.2 °C 6.4 mm
04.01.2018 12.3 °C 5.2 °C 13 mm
05.01.2018 10.8 °C 5.9 °C 3.6 mm
06.01.2018 10 °C 2.7 °C 1.4 mm
07.01.2018 6.7 °C 1.2 °C 0 mm
08.01.2018 7.6 °C 4.3 °C 0 mm
09.01.2018 7.8 °C 1.7 °C 0 mm
10.01.2018 9.8 °C 3.3 °C 0.2 mm
11.01.2018 7.6 °C -0.3 °C 0 mm
12.01.2018 4.2 °C 2.7 °C 0 mm
13.01.2018 4.6 °C 3.3 °C 0 mm
14.01.2018 3.4 °C -2.4 °C 0 mm
15.01.2018 5.8 °C -2.7 °C 0.4 mm
16.01.2018 7.7 °C 2.3 °C 7.4 mm
17.01.2018 4.1 °C 0.8 °C 4.8 mm
18.01.2018 9.1 °C 1.4 °C 5.4 mm
19.01.2018 5.9 °C 0.3 °C 13.2 mm
20.01.2018 3.8 °C 0.3 °C 13.6 mm
21.01.2018 3.7 °C 0.4 °C 1 mm
22.01.2018 7.7 °C 0.1 °C 17.4 mm
23.01.2018 8.1 °C 4.8 °C 1 mm
24.01.2018 12.8 °C 5.8 °C 0 mm
25.01.2018 11.8 °C 5.8 °C 0 mm
26.01.2018 9.1 °C 5.4 °C 3.2 mm
27.01.2018 6.4 °C 1.5 °C 0 mm
28.01.2018 9.3 °C 1.8 °C 0 mm
29.01.2018 10.3 °C 6.9 °C 0 mm
30.01.2018 9.1 °C 5.3 °C 3 mm
31.01.2018 10.1 °C 5.7 °C 2.4 mm
01.02.2018 5.8 °C 0.9 °C 5 mm
02.02.2018 4.3 °C -0.8 °C 0.4 mm
03.02.2018 3.6 °C 0.5 °C 0 mm
04.02.2018 3.2 °C -0.3 °C 0.4 mm
05.02.2018 4 °C -2.1 °C 0 mm
06.02.2018 4.2 °C -2.6 °C 0 mm
07.02.2018 1.3 °C -4.4 °C 0 mm
08.02.2018 1.9 °C -2.1 °C 0 mm
09.02.2018 2.2 °C -1.8 °C 0 mm
10.02.2018 2.9 °C 0.2 °C 0 mm
11.02.2018 5.9 °C 0.9 °C 0 mm
12.02.2018 3.2 °C -2.4 °C 1.2 mm
13.02.2018 4.2 °C -4.2 °C 0 mm
14.02.2018 4.7 °C -6.6 °C 0 mm
15.02.2018 4.1 °C -1.4 °C 2.6 mm
16.02.2018 9.5 °C -0.7 °C 1.4 mm
17.02.2018 2.2 °C -1.7 °C 3.2 mm
18.02.2018 1.3 °C -2.9 °C 0 mm
19.02.2018 1 °C -0.6 °C 0 mm
20.02.2018 1.5 °C -1.6 °C 0 mm
21.02.2018 3.5 °C -3 °C 0 mm
22.02.2018 2.1 °C -3.8 °C 0 mm
23.02.2018 1.8 °C -4.2 °C 0 mm
24.02.2018 4.3 °C -4.7 °C 0 mm
25.02.2018 -0.7 °C -7.7 °C 0 mm
26.02.2018 -4.1 °C -9.6 °C 0 mm
27.02.2018 -5.3 °C -11.4 °C 0 mm
28.02.2018 -3.2 °C -12.1 °C 0 mm
 Hinweis zur Datenqualität
∅ Temperatur

2.8 °C

Abweichung vom Mittel

+0.8 °C

Niederschlag

153.6 mm

Abweichung vom Mittel

124 %

°C

Lufttemperatur
01.01.1970

0 hPa

Luftdruck
01.01.1970

km/h

Windböen
01.01.1970

mm

Niederschlag
 

°C

Lufttemperatur
01.01.1970

*) °C

Bodentemperatur 5cm
01.01.1970

0 hPa

Luftdruck
01.01.1970
*) Messwert für diesen Zeitpunkt noch nicht verfügbar
 Hinweis zur Datenqualität